User: anonymous   Login
Location: Newsoms
(36.6240°N, 77.1250°W)
Time: 03:32:35
(UTC-05:00)
Language:

BREEZE-M DEB (TANK) - Orbit

View from above orbital plane
View from above orbital plane
View from above satellite
View from above satellite

Ground track
Ground track

The orbit data is extracted from the following two-line orbital elements,

1 29649U 06056B   15061.26111633  .00001669  00000-0  51734-3 0  9998
2 29649 049.4700 124.1294 5385763 000.4027 030.9828 04.96045014146014
Epoch (UTC): 02 March 2015 06:16:00
Eccentricity: 0.5385763
inclination: 49.4700°
perigee height: 323 km
apogee height: 15966 km
right ascension of ascending node: 124.1294°
argument of perigee: 0.4027°
revolutions per day: 4.96045014
mean anomaly at epoch: 30.9828°
orbit number at epoch: 14601

The dashed part of the orbit path shows where the satellite is in the earth's shadow,  

DLR